CZ-6A DEB, 61158

Orbit data source: Space-Track

CZ-6A DEB, 61158 is space debris in LEO originally from a launch on Tue, 06 Aug 2024 UTC launched from the Taiyaun Space Center, China (TSC). Debris objects in space refer to the collection of defunct objects orbiting the Earth. Examples of debris include non-operational satellites, rocket bodies, and fragments generated from explosions, collisions, or faulty payload assembly.

Loading next visibility...
Identifier
61158, 2024-140RC
Orbit
LEO
Country
Flag of CNCN / PRC
Related business
Manufacturer
SAST
Mission
Spacecraft
Bus & Motor
Unknown
Mass
Unknown
Launch date (UTC)
2024-08-06 (2 years ago)
Launch vehicle
Unknown
Launch site
Taiyaun Space Center, China (TSC)
Object type
Payload
Rocket body
Debris
Shape & HBR
Unknown shape, 0.1 m
Radar Cross Section
Small (<0.1 m²)

Expand to show TLE details & history
Last TLE update: 5 hours ago

TLE from 5 hours ago
0 CZ-6A DEB
1 61158U 24140RC  26118.80964159  .00002793  00000-0  11048-2 0  9999
2 61158  88.5003 242.5671 0082995 262.9395  96.2355 14.26864225 87569
Epoch: 2026-04-28T19:25Z
TLE epoch observation values (Epoch: 2026-04-28T19:25:53.033Z)
Latitude
-0.00002°
Longitude
94.31651°
Altitude
812.255 km
Speed
7.443 km/s
True Right ascension
16h 10m 16s
True Declination
0° 00' 00"
Sunlit
Object was in full shadow at epoch
Visualization orbit readout
Latitude
Unknown
Longitude
Unknown
Altitude
Unknown
Speed
Unknown
Apparent Right ascension
Unknown
Apparent Declination
Unknown
Sunlit
N/A
Visualization observer readout
Local Sidereal Time
08:20:08
Azimuth
Unknown
Elevation
Unknown
Doppler factor
Unknown
Orbital elements
Apogee altitude
858.744 km
Perigee altitude
739.608 km
Semi-major axis
7,177.313 km
Eccentricity
0.0083
Inclination
88.5003°
RAAN
242.5671°
Arg. of periapsis
262.9395°
True anomaly
97.17982°
Mean anomaly
96.2355°
Eccentric anomaly
96.70777°
Mean motion
3.56944 °/min
Orbital period
100.86 mins
BSTAR
0.0011048
Loading maneuver chart data...
Computing Atmospheric mass density...
Loading historical data...
Loading historical data...
Loading historical data...
Loading historical data...
Loading historical data...
Loading historical data...
Loading historical data...

Documentation

Showing up to 5 results
|